| time (UTC) | temp F | wind direction | speed MPH | gust MPH | rain 1hr in | rain 24hr in | rain mn in | humidity % | barometer mb |
| 20260503221217 | 67 | 20 | 4.0 | 5.0 | 0.00 | 0.00 | 0.00 | 40 | 1017.9 |
| 20260503221008 | 67 | 6 | 4.0 | 4.0 | 0.00 | 0.00 | 0.00 | 42 | 1017.9 |
| 20260503220508 | 67 | 312 | 1.0 | 3.0 | 0.00 | 0.00 | 0.00 | 42 | 1017.9 |
| 20260503220215 | 67 | 313 | 4.0 | 6.0 | 0.00 | 0.00 | 0.00 | 44 | 1017.9 |
| 20260503220009 | 67 | 350 | 3.0 | 7.0 | 0.00 | 0.00 | 0.00 | 43 | 1017.9 |
| 20260503215509 | 67 | 295 | 0.0 | 3.0 | 0.00 | 0.00 | 0.00 | 40 | 1018.1 |
| 20260503215214 | 67 | 27 | 2.0 | 7.0 | 0.00 | 0.00 | 0.00 | 40 | 1018.1 |
| 20260503215008 | 67 | 313 | 0.0 | 3.0 | 0.00 | 0.00 | 0.00 | 41 | 1018.1 |
| 20260503214508 | 67 | 281 | 0.0 | 1.0 | 0.00 | 0.00 | 0.00 | 41 | 1018.1 |
| 20260503214215 | 68 | 0 | 3.0 | 6.0 | 0.00 | 0.00 | 0.00 | 41 | 1018.2 |
| 20260503214009 | 68 | 260 | 6.0 | 7.0 | 0.00 | 0.00 | 0.00 | 41 | 1018.2 |
| 20260503213509 | 68 | 285 | 1.0 | 4.0 | 0.00 | 0.00 | 0.00 | 44 | 1018.2 |
| 20260503213214 | 68 | 0 | 1.0 | 2.0 | 0.00 | 0.00 | 0.00 | 40 | 1018.2 |
| 20260503213008 | 68 | 6 | 4.0 | 6.0 | 0.00 | 0.00 | 0.00 | 41 | 1018.2 |
| 20260503212508 | 68 | 326 | 1.0 | 1.0 | 0.00 | 0.00 | 0.00 | 41 | 1018.3 |
| 20260503212214 | 68 | 342 | 1.0 | 3.0 | 0.00 | 0.00 | 0.00 | 40 | 1018.3 |
| 20260503212009 | 68 | 315 | 5.0 | 5.0 | 0.00 | 0.00 | 0.00 | 40 | 1018.3 |
| 20260503211508 | 68 | 326 | 5.0 | 6.0 | 0.00 | 0.00 | 0.00 | 39 | 1018.3 |
| 20260503211214 | 68 | 287 | 4.0 | 4.0 | 0.00 | 0.00 | 0.00 | 41 | 1018.4 |
| 20260503211007 | 68 | 257 | 6.0 | 7.0 | 0.00 | 0.00 | 0.00 | 41 | 1018.4 |
| 20260503210508 | 68 | 241 | 5.0 | 9.0 | 0.00 | 0.00 | 0.00 | 40 | 1018.4 |
| 20260503210215 | 68 | 11 | 0.0 | 2.0 | 0.00 | 0.00 | 0.00 | 43 | 1018.4 |
| 20260503210009 | 68 | 4 | 1.0 | 1.0 | 0.00 | 0.00 | 0.00 | 41 | 1018.4 |
| 20260503205507 | 68 | 291 | 2.0 | 6.0 | 0.00 | 0.00 | 0.00 | 41 | 1018.7 |
| 20260503205214 | 69 | 299 | 2.0 | 10.0 | 0.00 | 0.00 | 0.00 | 39 | 1018.7 |
| 20260503205010 | 69 | 298 | 1.0 | 5.0 | 0.00 | 0.00 | 0.00 | 39 | 1018.7 |
| 20260503204509 | 69 | 315 | 0.0 | 2.0 | 0.00 | 0.00 | 0.00 | 39 | 1018.7 |
| 20260503204214 | 69 | 263 | 2.0 | 4.0 | 0.00 | 0.00 | 0.00 | 40 | 1019.0 |
| 20260503204007 | 69 | 335 | 1.0 | 6.0 | 0.00 | 0.00 | 0.00 | 39 | 1019.0 |
| 20260503203508 | 69 | 275 | 2.0 | 5.0 | 0.00 | 0.00 | 0.00 | 42 | 1019.0 |
| 20260503203215 | 69 | 265 | 4.0 | 9.0 | 0.00 | 0.00 | 0.00 | 39 | 1019.0 |
| 20260503203008 | 69 | 350 | 3.0 | 7.0 | 0.00 | 0.00 | 0.00 | 39 | 1019.0 |
| 20260503202508 | 69 | 275 | 3.0 | 6.0 | 0.00 | 0.00 | 0.00 | 39 | 1019.1 |
| 20260503202214 | 69 | 311 | 3.0 | 4.0 | 0.00 | 0.00 | 0.00 | 38 | 1019.1 |
| 20260503202007 | 69 | 256 | 2.0 | 5.0 | 0.00 | 0.00 | 0.00 | 41 | 1019.1 |
| 20260503201508 | 69 | 323 | 2.0 | 3.0 | 0.00 | 0.00 | 0.00 | 41 | 1019.1 |
| 20260503201215 | 69 | 246 | 2.0 | 6.0 | 0.00 | 0.00 | 0.00 | 40 | 1019.5 |
| 20260503201009 | 69 | 304 | 4.0 | 4.0 | 0.00 | 0.00 | 0.00 | 40 | 1019.5 |
| 20260503200508 | 68 | 333 | 1.0 | 3.0 | 0.00 | 0.00 | 0.00 | 38 | 1019.5 |
| 20260503200213 | 68 | 319 | 0.0 | 3.0 | 0.00 | 0.00 | 0.00 | 38 | 1019.5 |
| 20260503200007 | 68 | 339 | 3.0 | 7.0 | 0.00 | 0.00 | 0.00 | 39 | 1019.5 |
| 20260503195511 | 68 | 302 | 9.0 | 9.0 | 0.00 | 0.00 | 0.00 | 38 | 1019.9 |
| 20260503195215 | 68 | 318 | 9.0 | 10.0 | 0.00 | 0.00 | 0.00 | 38 | 1019.9 |
| 20260503195008 | 68 | 267 | 4.0 | 5.0 | 0.00 | 0.00 | 0.00 | 37 | 1019.9 |
| 20260503194507 | 68 | 275 | 3.0 | 5.0 | 0.00 | 0.00 | 0.00 | 39 | 1019.9 |
| 20260503194214 | 68 | 306 | 6.0 | 10.0 | 0.00 | 0.00 | 0.00 | 40 | 1020.1 |
| 20260503194008 | 68 | 294 | 5.0 | 14.0 | 0.00 | 0.00 | 0.00 | 38 | 1020.1 |
| 20260503193509 | 68 | 313 | 7.0 | 7.0 | 0.00 | 0.00 | 0.00 | 38 | 1020.1 |
| 20260503193213 | 68 | 0 | 6.0 | 9.0 | 0.00 | 0.00 | 0.00 | 38 | 1020.1 |
| 20260503193009 | 68 | 332 | 7.0 | 7.0 | 0.00 | 0.00 | 0.00 | 41 | 1020.1 |
| 20260503192508 | 68 | 357 | 11.0 | 14.0 | 0.00 | 0.00 | 0.00 | 39 | 1020.3 |
| 20260503192214 | 68 | 0 | 2.0 | 3.0 | 0.00 | 0.00 | 0.00 | 44 | 1020.3 |
| 20260503192008 | 67 | 359 | 1.0 | 6.0 | 0.00 | 0.00 | 0.00 | 44 | 1020.3 |
| 20260503191509 | 67 | 289 | 2.0 | 3.0 | 0.00 | 0.00 | 0.00 | 42 | 1020.3 |
| 20260503191214 | 67 | 285 | 5.0 | 6.0 | 0.00 | 0.00 | 0.00 | 42 | 1020.5 |
| 20260503191008 | 67 | 222 | 1.0 | 1.0 | 0.00 | 0.00 | 0.00 | 45 | 1020.5 |
| 20260503190507 | 67 | 160 | 1.0 | 1.0 | 0.00 | 0.00 | 0.00 | 41 | 1020.5 |
| 20260503190215 | 67 | 291 | 7.0 | 10.0 | 0.00 | 0.00 | 0.00 | 42 | 1020.5 |
| 20260503190008 | 67 | 311 | 2.0 | 10.0 | 0.00 | 0.00 | 0.00 | 43 | 1020.5 |
| 20260503185508 | 67 | 275 | 3.0 | 5.0 | 0.00 | 0.00 | 0.00 | 40 | 1020.8 |
| 20260503185213 | 67 | 289 | 1.0 | 3.0 | 0.00 | 0.00 | 0.00 | 41 | 1020.8 |
| 20260503185007 | 67 | 322 | 0.0 | 2.0 | 0.00 | 0.00 | 0.00 | 42 | 1020.8 |
| 20260503184507 | 67 | 38 | 1.0 | 2.0 | 0.00 | 0.00 | 0.00 | 44 | 1020.8 |
| 20260503184214 | 67 | 326 | 0.0 | 4.0 | 0.00 | 0.00 | 0.00 | 42 | 1021.0 |
| 20260503184009 | 67 | 0 | 5.0 | 10.0 | 0.00 | 0.00 | 0.00 | 43 | 1021.0 |
| 20260503183509 | 67 | 305 | 1.0 | 3.0 | 0.00 | 0.00 | 0.00 | 41 | 1021.0 |
| 20260503183214 | 67 | 11 | 11.0 | 12.0 | 0.00 | 0.00 | 0.00 | 45 | 1021.0 |
| 20260503183007 | 67 | 241 | 4.0 | 5.0 | 0.00 | 0.00 | 0.00 | 42 | 1021.0 |
| 20260503182507 | 67 | 328 | 2.0 | 6.0 | 0.00 | 0.00 | 0.00 | 43 | 1021.2 |
| 20260503182214 | 67 | 298 | 2.0 | 7.0 | 0.00 | 0.00 | 0.00 | 43 | 1021.2 |
| 20260503182009 | 66 | 304 | 3.0 | 7.0 | 0.00 | 0.00 | 0.00 | 43 | 1021.2 |
| 20260503181509 | 66 | 315 | 4.0 | 9.0 | 0.00 | 0.00 | 0.00 | 42 | 1021.2 |
| 20260503181214 | 66 | 25 | 1.0 | 5.0 | 0.00 | 0.00 | 0.00 | 41 | 1021.3 |
| 20260503181008 | 66 | 251 | 0.0 | 3.0 | 0.00 | 0.00 | 0.00 | 44 | 1021.3 |
| 20260503180508 | 66 | 304 | 1.0 | 3.0 | 0.00 | 0.00 | 0.00 | 43 | 1021.3 |
| 20260503180214 | 66 | 17 | 5.0 | 5.0 | 0.00 | 0.00 | 0.00 | 45 | 1021.3 |
| 20260503180008 | 66 | 332 | 3.0 | 5.0 | 0.00 | 0.00 | 0.00 | 47 | 1021.3 |
| 20260503175509 | 65 | 325 | 1.0 | 4.0 | 0.00 | 0.00 | 0.00 | 48 | 1021.3 |
| 20260503175213 | 65 | 3 | 5.0 | 5.0 | 0.00 | 0.00 | 0.00 | 47 | 1021.3 |
| 20260503175007 | 65 | 296 | 0.0 | 5.0 | 0.00 | 0.00 | 0.00 | 48 | 1021.3 |
| 20260503174509 | 65 | 320 | 4.0 | 4.0 | 0.00 | 0.00 | 0.00 | 47 | 1021.3 |
| 20260503174214 | 64 | 54 | 1.0 | 1.0 | 0.00 | 0.00 | 0.00 | 47 | 1021.6 |
| 20260503174008 | 64 | 1 | 3.0 | 3.0 | 0.00 | 0.00 | 0.00 | 48 | 1021.6 |
| 20260503173508 | 64 | 272 | 0.0 | 2.0 | 0.00 | 0.00 | 0.00 | 50 | 1021.6 |
| 20260503173214 | 64 | 357 | 5.0 | 5.0 | 0.00 | 0.00 | 0.00 | 52 | 1021.6 |
| 20260503173007 | 64 | 282 | 3.0 | 7.0 | 0.00 | 0.00 | 0.00 | 48 | 1021.6 |
| 20260503172508 | 64 | 0 | 4.0 | 6.0 | 0.00 | 0.00 | 0.00 | 50 | 1021.8 |
| 20260503172213 | 64 | 340 | 3.0 | 3.0 | 0.00 | 0.00 | 0.00 | 49 | 1021.8 |
| 20260503172009 | 64 | 304 | 1.0 | 5.0 | 0.00 | 0.00 | 0.00 | 48 | 1021.8 |
| 20260503171507 | 64 | 287 | 3.0 | 6.0 | 0.00 | 0.00 | 0.00 | 47 | 1021.8 |
| 20260503171215 | 64 | 309 | 2.0 | 10.0 | 0.00 | 0.00 | 0.00 | 47 | 1022.1 |
| 20260503171008 | 64 | 288 | 3.0 | 3.0 | 0.00 | 0.00 | 0.00 | 52 | 1022.1 |
| 20260503170509 | 63 | 193 | 0.0 | 0.0 | 0.00 | 0.00 | 0.00 | 52 | 1022.1 |
| 20260503170215 | 63 | 213 | 0.0 | 3.0 | 0.00 | 0.00 | 0.00 | 48 | 1022.1 |
| 20260503160213 | 61 | 10 | 5.0 | 5.0 | 0.00 | 0.00 | 0.00 | 52 | 1022.4 |
| 20260503151007 | 60 | 30 | 2.0 | 4.0 | 0.00 | 0.00 | 0.00 | 55 | 1022.4 |
| 20260503150507 | 60 | 337 | 4.0 | 4.0 | 0.00 | 0.00 | 0.00 | 57 | 1022.4 |
| 20260503150214 | 60 | 103 | 1.0 | 2.0 | 0.00 | 0.00 | 0.00 | 58 | 1022.4 |
| 20260503140214 | 56 | 47 | 2.0 | 4.0 | 0.00 | 0.00 | 0.00 | 73 | 1022.3 |
| 20260503131217 | 52 | 359 | 0.0 | 3.0 | 0.00 | 0.00 | 0.00 | 83 | 1022.1 |
| 20260503131008 | 52 | 56 | 0.0 | 1.0 | 0.00 | 0.00 | 0.00 | 84 | 1022.1 |
| 20260503130509 | 52 | 347 | 0.0 | 1.0 | 0.00 | 0.00 | 0.00 | 86 | 1022.1 |
| 20260503130213 | 51 | 0 | 1.0 | 2.0 | 0.00 | 0.00 | 0.00 | 87 | 1022.1 |
| 20260503120214 | 46 | 329 | 2.0 | 4.0 | 0.00 | 0.00 | 0.00 | 96 | 1021.5 |
| 20260503110508 | 45 | 359 | 3.0 | 3.0 | 0.00 | 0.00 | 0.00 | 95 | 1020.9 |
| 20260503110214 | 45 | 0 | 2.0 | 4.0 | 0.00 | 0.00 | 0.00 | 95 | 1020.9 |
| 20260503100216 | 46 | 340 | 2.0 | 2.0 | 0.00 | 0.00 | 0.00 | 90 | 1020.1 |
| 20260503090510 | 48 | 359 | 5.0 | 5.0 | 0.00 | 0.00 | 0.00 | 86 | 1019.9 |
| 20260503090214 | 48 | 1 | 4.0 | 4.0 | 0.00 | 0.00 | 0.00 | 86 | 1019.9 |
| 20260503081508 | 48 | 347 | 2.0 | 3.0 | 0.00 | 0.00 | 0.00 | 83 | 1019.9 |
| 20260503081214 | 48 | 0 | 2.0 | 4.0 | 0.00 | 0.00 | 0.00 | 82 | 1019.7 |
| 20260503081008 | 49 | 359 | 3.0 | 3.0 | 0.00 | 0.00 | 0.00 | 82 | 1019.7 |
| 20260503080509 | 49 | 0 | 2.0 | 4.0 | 0.00 | 0.00 | 0.00 | 82 | 1019.7 |
| 20260503080214 | 49 | 343 | 1.0 | 2.0 | 0.00 | 0.00 | 0.00 | 82 | 1019.7 |
| 20260503072510 | 50 | 17 | 1.0 | 3.0 | 0.00 | 0.00 | 0.00 | 79 | 1019.4 |
| 20260503072213 | 50 | 4 | 2.0 | 6.0 | 0.00 | 0.00 | 0.00 | 78 | 1019.4 |
| 20260503072007 | 50 | 346 | 3.0 | 3.0 | 0.00 | 0.00 | 0.00 | 78 | 1019.4 |
| 20260503071507 | 50 | 7 | 1.0 | 4.0 | 0.00 | 0.00 | 0.00 | 78 | 1019.4 |
| 20260503071219 | 50 | 353 | 3.0 | 3.0 | 0.00 | 0.00 | 0.00 | 78 | 1019.3 |
| 20260503071008 | 50 | 6 | 2.0 | 4.0 | 0.00 | 0.00 | 0.00 | 78 | 1019.3 |
| 20260503070509 | 50 | 20 | 1.0 | 3.0 | 0.00 | 0.00 | 0.00 | 77 | 1019.3 |
| 20260503070215 | 50 | 0 | 2.0 | 3.0 | 0.00 | 0.00 | 0.00 | 77 | 1019.3 |
| 20260503060215 | 52 | 4 | 3.0 | 7.0 | 0.00 | 0.00 | 0.00 | 72 | 1019.1 |
| 20260503055009 | 53 | 4 | 3.0 | 8.0 | 0.00 | 0.00 | 0.00 | 71 | 1019.1 |
| 20260503054508 | 53 | 17 | 2.0 | 6.0 | 0.00 | 0.00 | 0.00 | 70 | 1019.1 |
| 20260503054215 | 53 | 1 | 6.0 | 7.0 | 0.00 | 0.00 | 0.00 | 71 | 1019.0 |
| 20260503054009 | 53 | 0 | 2.0 | 6.0 | 0.00 | 0.00 | 0.00 | 70 | 1019.0 |
| 20260503053510 | 53 | 51 | 3.0 | 9.0 | 0.00 | 0.00 | 0.00 | 70 | 1019.0 |
| 20260503053215 | 53 | 34 | 3.0 | 9.0 | 0.00 | 0.00 | 0.00 | 70 | 1019.0 |
| 20260503053007 | 53 | 337 | 4.0 | 6.0 | 0.00 | 0.00 | 0.00 | 70 | 1019.0 |
| 20260503052508 | 53 | 3 | 2.0 | 4.0 | 0.00 | 0.00 | 0.00 | 70 | 1018.9 |
| 20260503052214 | 53 | 14 | 1.0 | 7.0 | 0.00 | 0.00 | 0.00 | 69 | 1018.9 |
| 20260503052009 | 53 | 30 | 4.0 | 5.0 | 0.00 | 0.00 | 0.00 | 69 | 1018.9 |
| 20260503051509 | 54 | 0 | 5.0 | 5.0 | 0.00 | 0.00 | 0.00 | 69 | 1018.9 |
| 20260503051215 | 54 | 16 | 6.0 | 7.0 | 0.00 | 0.00 | 0.00 | 69 | 1018.9 |
| 20260503051007 | 54 | 27 | 5.0 | 5.0 | 0.00 | 0.00 | 0.00 | 69 | 1018.9 |
| 20260503050510 | 54 | 34 | 7.0 | 7.0 | 0.00 | 0.00 | 0.00 | 69 | 1018.9 |
| 20260503050215 | 54 | 34 | 7.0 | 10.0 | 0.00 | 0.00 | 0.00 | 69 | 1018.9 |
| 20260503050008 | 54 | 31 | 2.0 | 5.0 | 0.00 | 0.00 | 0.00 | 68 | 1018.9 |
| 20260503045508 | 54 | 41 | 10.0 | 10.0 | 0.00 | 0.00 | 0.00 | 68 | 1018.8 |
| 20260503045214 | 54 | 24 | 4.0 | 8.0 | 0.00 | 0.00 | 0.00 | 68 | 1018.8 |
| 20260503045007 | 54 | 0 | 5.0 | 9.0 | 0.00 | 0.00 | 0.00 | 68 | 1018.8 |
| 20260503044508 | 54 | 20 | 3.0 | 9.0 | 0.00 | 0.00 | 0.00 | 68 | 1018.8 |
| 20260503044214 | 54 | 356 | 5.0 | 6.0 | 0.00 | 0.00 | 0.00 | 68 | 1018.6 |
| 20260503044008 | 54 | 6 | 5.0 | 5.0 | 0.00 | 0.00 | 0.00 | 67 | 1018.6 |
| 20260503043509 | 54 | 51 | 10.0 | 10.0 | 0.00 | 0.00 | 0.00 | 66 | 1018.6 |
| 20260503043214 | 55 | 20 | 1.0 | 4.0 | 0.00 | 0.00 | 0.00 | 66 | 1018.6 |
| 20260503043008 | 55 | 34 | 5.0 | 10.0 | 0.00 | 0.00 | 0.00 | 65 | 1018.6 |
| 20260503042508 | 55 | 1 | 6.0 | 6.0 | 0.00 | 0.00 | 0.00 | 64 | 1018.3 |
| 20260503042215 | 55 | 31 | 3.0 | 6.0 | 0.00 | 0.00 | 0.00 | 63 | 1018.3 |
| 20260503042009 | 56 | 23 | 4.0 | 6.0 | 0.00 | 0.00 | 0.00 | 62 | 1018.3 |
| 20260503041507 | 56 | 0 | 3.0 | 6.0 | 0.00 | 0.00 | 0.00 | 61 | 1018.3 |
| 20260503041216 | 56 | 24 | 9.0 | 10.0 | 0.00 | 0.00 | 0.00 | 60 | 1018.1 |
| 20260503041008 | 56 | 18 | 3.0 | 5.0 | 0.00 | 0.00 | 0.00 | 60 | 1018.1 |
| 20260503040508 | 56 | 357 | 3.0 | 4.0 | 0.00 | 0.00 | 0.00 | 60 | 1018.1 |
| 20260503040213 | 56 | 0 | 0.0 | 2.0 | 0.00 | 0.00 | 0.00 | 59 | 1018.1 |
| 20260503040009 | 56 | 4 | 2.0 | 3.0 | 0.00 | 0.00 | 0.00 | 59 | 1018.1 |
| 20260503035508 | 56 | 1 | 2.0 | 3.0 | 0.00 | 0.00 | 0.00 | 59 | 1018.0 |
| 20260503035215 | 56 | 0 | 1.0 | 2.0 | 0.00 | 0.00 | 0.00 | 59 | 1018.0 |
| 20260503035007 | 56 | 0 | 2.0 | 2.0 | 0.00 | 0.00 | 0.00 | 59 | 1018.0 |
| 20260503034508 | 56 | 6 | 2.0 | 2.0 | 0.00 | 0.00 | 0.00 | 58 | 1018.0 |
| 20260503034213 | 56 | 0 | 1.0 | 3.0 | 0.00 | 0.00 | 0.00 | 58 | 1017.9 |
| 20260503034008 | 56 | 0 | 2.0 | 3.0 | 0.00 | 0.00 | 0.00 | 58 | 1017.9 |
| 20260503033508 | 56 | 7 | 3.0 | 4.0 | 0.00 | 0.00 | 0.00 | 58 | 1017.9 |
| 20260503033214 | 56 | 359 | 1.0 | 3.0 | 0.00 | 0.00 | 0.00 | 59 | 1017.9 |
| 20260503033009 | 56 | 0 | 2.0 | 4.0 | 0.00 | 0.00 | 0.00 | 59 | 1017.9 |
| 20260503032508 | 56 | 0 | 2.0 | 3.0 | 0.00 | 0.00 | 0.00 | 59 | 1017.9 |
| 20260503032213 | 56 | 0 | 2.0 | 2.0 | 0.00 | 0.00 | 0.00 | 59 | 1017.9 |
| 20260503032007 | 56 | 350 | 0.0 | 2.0 | 0.00 | 0.00 | 0.00 | 59 | 1017.9 |
| 20260503031508 | 56 | 356 | 1.0 | 2.0 | 0.00 | 0.00 | 0.00 | 58 | 1017.9 |
| 20260503031215 | 56 | 350 | 1.0 | 2.0 | 0.00 | 0.00 | 0.00 | 58 | 1017.9 |
| 20260503031008 | 56 | 344 | 1.0 | 2.0 | 0.00 | 0.00 | 0.00 | 58 | 1017.9 |
| 20260503030508 | 56 | 0 | 0.0 | 1.0 | 0.00 | 0.00 | 0.00 | 58 | 1017.9 |
| 20260503030214 | 56 | 0 | 1.0 | 1.0 | 0.00 | 0.00 | 0.00 | 58 | 1017.9 |
| 20260503030008 | 56 | 0 | 1.0 | 2.0 | 0.00 | 0.00 | 0.00 | 57 | 1017.9 |
| 20260503025509 | 56 | 0 | 1.0 | 3.0 | 0.00 | 0.00 | 0.00 | 57 | 1017.7 |
| 20260503025214 | 56 | 359 | 3.0 | 3.0 | 0.00 | 0.00 | 0.00 | 57 | 1017.7 |
| 20260503025008 | 56 | 7 | 3.0 | 4.0 | 0.00 | 0.00 | 0.00 | 57 | 1017.7 |
| 20260503024507 | 56 | 359 | 2.0 | 4.0 | 0.00 | 0.00 | 0.00 | 57 | 1017.7 |
| 20260503024215 | 56 | 8 | 1.0 | 4.0 | 0.00 | 0.00 | 0.00 | 57 | 1017.6 |
| 20260503024008 | 56 | 0 | 2.0 | 3.0 | 0.00 | 0.00 | 0.00 | 57 | 1017.6 |
| 20260503023508 | 57 | 1 | 2.0 | 3.0 | 0.00 | 0.00 | 0.00 | 58 | 1017.6 |
| 20260503023214 | 57 | 359 | 2.0 | 2.0 | 0.00 | 0.00 | 0.00 | 57 | 1017.6 |
| 20260503023009 | 57 | 359 | 0.0 | 1.0 | 0.00 | 0.00 | 0.00 | 57 | 1017.6 |
| 20260503022507 | 57 | 359 | 0.0 | 1.0 | 0.00 | 0.00 | 0.00 | 56 | 1017.4 |
| 20260503022215 | 57 | 0 | 1.0 | 2.0 | 0.00 | 0.00 | 0.00 | 56 | 1017.4 |
| 20260503022008 | 57 | 0 | 0.0 | 2.0 | 0.00 | 0.00 | 0.00 | 56 | 1017.4 |
| 20260503021508 | 57 | 0 | 2.0 | 4.0 | 0.00 | 0.00 | 0.00 | 55 | 1017.4 |
| 20260503021214 | 57 | 0 | 4.0 | 4.0 | 0.00 | 0.00 | 0.00 | 56 | 1017.2 |
| 20260503021009 | 57 | 3 | 2.0 | 3.0 | 0.00 | 0.00 | 0.00 | 56 | 1017.2 |
| 20260503020507 | 57 | 4 | 0.0 | 3.0 | 0.00 | 0.00 | 0.00 | 54 | 1017.2 |
| 20260503020214 | 57 | 342 | 1.0 | 5.0 | 0.00 | 0.00 | 0.00 | 54 | 1017.2 |
| 20260503020008 | 57 | 343 | 0.0 | 4.0 | 0.00 | 0.00 | 0.00 | 55 | 1017.2 |
| 20260503015508 | 57 | 336 | 3.0 | 3.0 | 0.00 | 0.00 | 0.00 | 55 | 1017.0 |
| 20260503015213 | 57 | 350 | 3.0 | 3.0 | 0.00 | 0.00 | 0.00 | 55 | 1017.0 |
| 20260503015009 | 57 | 0 | 2.0 | 2.0 | 0.00 | 0.00 | 0.00 | 55 | 1017.0 |
| 20260503014507 | 57 | 332 | 1.0 | 2.0 | 0.00 | 0.00 | 0.00 | 55 | 1017.0 |
| 20260503014215 | 57 | 350 | 2.0 | 3.0 | 0.00 | 0.00 | 0.00 | 55 | 1016.9 |
| 20260503014007 | 57 | 340 | 2.0 | 2.0 | 0.00 | 0.00 | 0.00 | 55 | 1016.9 |
| 20260503013509 | 57 | 336 | 1.0 | 1.0 | 0.00 | 0.00 | 0.00 | 55 | 1016.9 |
| 20260503013215 | 58 | 342 | 1.0 | 2.0 | 0.00 | 0.00 | 0.00 | 55 | 1016.9 |
| 20260503013009 | 58 | 304 | 3.0 | 3.0 | 0.00 | 0.00 | 0.00 | 54 | 1016.9 |
| 20260503012508 | 58 | 294 | 3.0 | 5.0 | 0.00 | 0.00 | 0.00 | 54 | 1016.7 |
| 20260503012214 | 58 | 336 | 2.0 | 4.0 | 0.00 | 0.00 | 0.00 | 54 | 1016.7 |
| 20260503012009 | 58 | 356 | 0.0 | 2.0 | 0.00 | 0.00 | 0.00 | 53 | 1016.7 |
| 20260503011508 | 58 | 328 | 0.0 | 4.0 | 0.00 | 0.00 | 0.00 | 53 | 1016.7 |
| 20260503011214 | 58 | 312 | 1.0 | 2.0 | 0.00 | 0.00 | 0.00 | 53 | 1016.6 |
| 20260503011009 | 58 | 0 | 1.0 | 2.0 | 0.00 | 0.00 | 0.00 | 52 | 1016.6 |
| 20260503010508 | 58 | 323 | 3.0 | 4.0 | 0.00 | 0.00 | 0.00 | 52 | 1016.6 |
| 20260503010216 | 59 | 339 | 1.0 | 3.0 | 0.00 | 0.00 | 0.00 | 52 | 1016.6 |
| 20260503010009 | 59 | 342 | 1.0 | 3.0 | 0.00 | 0.00 | 0.00 | 52 | 1016.6 |
| 20260503005509 | 59 | 323 | 1.0 | 2.0 | 0.00 | 0.00 | 0.00 | 51 | 1016.5 |
| 20260503005213 | 59 | 333 | 3.0 | 3.0 | 0.00 | 0.00 | 0.00 | 51 | 1016.5 |
| 20260503005008 | 59 | 347 | 1.0 | 2.0 | 0.00 | 0.00 | 0.00 | 51 | 1016.5 |
| 20260503004507 | 60 | 357 | 3.0 | 3.0 | 0.00 | 0.00 | 0.00 | 50 | 1016.5 |
| 20260503004215 | 60 | 340 | 3.0 | 3.0 | 0.00 | 0.00 | 0.00 | 50 | 1016.2 |
| 20260503004008 | 60 | 337 | 2.0 | 3.0 | 0.00 | 0.00 | 0.00 | 50 | 1016.2 |
| 20260503003509 | 60 | 359 | 2.0 | 2.0 | 0.00 | 0.00 | 0.00 | 50 | 1016.2 |
| 20260503003214 | 60 | 308 | 1.0 | 2.0 | 0.00 | 0.00 | 0.00 | 50 | 1016.2 |
| 20260503003008 | 61 | 349 | 0.0 | 2.0 | 0.00 | 0.00 | 0.00 | 50 | 1016.2 |
| 20260503002508 | 61 | 340 | 1.0 | 2.0 | 0.00 | 0.00 | 0.00 | 48 | 1015.9 |
| 20260503002216 | 61 | 347 | 0.0 | 1.0 | 0.00 | 0.00 | 0.00 | 48 | 1015.9 |
| 20260503002007 | 61 | 347 | 1.0 | 2.0 | 0.00 | 0.00 | 0.00 | 47 | 1015.9 |
| 20260503001509 | 62 | 353 | 0.0 | 0.0 | 0.00 | 0.00 | 0.00 | 45 | 1015.9 |
| 20260503001214 | 62 | 56 | 1.0 | 1.0 | 0.00 | 0.00 | 0.00 | 45 | 1015.7 |
| 20260503001008 | 62 | 349 | 0.0 | 0.0 | 0.00 | 0.00 | 0.00 | 45 | 1015.7 |
| 20260503000508 | 62 | 340 | 1.0 | 2.0 | 0.00 | 0.00 | 0.00 | 45 | 1015.7 |
| 20260503000215 | 62 | 4 | 1.0 | 4.0 | 0.00 | 0.00 | 0.00 | 45 | 1015.7 |
| 20260503000008 | 62 | 0 | 3.0 | 3.0 | 0.00 | 0.00 | 0.00 | 45 | 1015.7 |
| 20260502235509 | 62 | 330 | 5.0 | 7.0 | 0.00 | 0.00 | 0.00 | 44 | 1015.6 |
| 20260502235215 | 63 | 71 | 0.0 | 2.0 | 0.00 | 0.00 | 0.00 | 44 | 1015.6 |
| 20260502235009 | 63 | 354 | 5.0 | 10.0 | 0.00 | 0.00 | 0.00 | 45 | 1015.6 |
| 20260502234507 | 63 | 337 | 2.0 | 4.0 | 0.00 | 0.00 | 0.00 | 43 | 1015.6 |
| 20260502234216 | 63 | 0 | 2.0 | 6.0 | 0.00 | 0.00 | 0.00 | 43 | 1015.5 |
| 20260502234007 | 63 | 357 | 3.0 | 3.0 | 0.00 | 0.00 | 0.00 | 43 | 1015.5 |
| 20260502233508 | 63 | 319 | 6.0 | 6.0 | 0.00 | 0.00 | 0.00 | 42 | 1015.5 |
| 20260502233215 | 63 | 330 | 3.0 | 5.0 | 0.00 | 0.00 | 0.00 | 42 | 1015.5 |
| 20260502233012 | 63 | 342 | 2.0 | 9.0 | 0.00 | 0.00 | 0.00 | 41 | 1015.5 |
| 20260502232507 | 64 | 342 | 4.0 | 5.0 | 0.00 | 0.00 | 0.00 | 42 | 1015.4 |
| 20260502232214 | 64 | 295 | 5.0 | 5.0 | 0.00 | 0.00 | 0.00 | 41 | 1015.4 |
| 20260502232009 | 64 | 299 | 2.0 | 4.0 | 0.00 | 0.00 | 0.00 | 41 | 1015.4 |
| 20260502231509 | 64 | 344 | 5.0 | 6.0 | 0.00 | 0.00 | 0.00 | 41 | 1015.4 |
| 20260502231214 | 64 | 339 | 2.0 | 10.0 | 0.00 | 0.00 | 0.00 | 40 | 1015.4 |
| 20260502231008 | 64 | 6 | 6.0 | 9.0 | 0.00 | 0.00 | 0.00 | 41 | 1015.4 |
| 20260502230512 | 64 | 335 | 2.0 | 4.0 | 0.00 | 0.00 | 0.00 | 41 | 1015.4 |
| 20260502230215 | 64 | 0 | 6.0 | 7.0 | 0.00 | 0.00 | 0.00 | 42 | 1015.4 |
| 20260502230012 | 64 | 342 | 5.0 | 5.0 | 0.00 | 0.00 | 0.00 | 42 | 1015.4 |
| 20260502225511 | 64 | 357 | 1.0 | 3.0 | 0.00 | 0.00 | 0.00 | 42 | 1015.5 |
| 20260502225214 | 64 | 24 | 2.0 | 2.0 | 0.00 | 0.00 | 0.00 | 41 | 1015.5 |
| 20260502225013 | 64 | 7 | 1.0 | 5.0 | 0.00 | 0.00 | 0.00 | 41 | 1015.5 |
| 20260502224512 | 64 | 352 | 5.0 | 6.0 | 0.00 | 0.00 | 0.00 | 40 | 1015.5 |
| 20260502224215 | 64 | 304 | 5.0 | 9.0 | 0.00 | 0.00 | 0.00 | 40 | 1015.4 |
| 20260502224012 | 64 | 0 | 5.0 | 6.0 | 0.00 | 0.00 | 0.00 | 40 | 1015.4 |
| 20260502223512 | 64 | 325 | 4.0 | 9.0 | 0.00 | 0.00 | 0.00 | 41 | 1015.4 |
| 20260502223214 | 64 | 0 | 4.0 | 4.0 | 0.00 | 0.00 | 0.00 | 41 | 1015.4 |
| 20260502223012 | 64 | 359 | 1.0 | 9.0 | 0.00 | 0.00 | 0.00 | 40 | 1015.4 |
| 20260502222513 | 64 | 357 | 1.0 | 5.0 | 0.00 | 0.00 | 0.00 | 39 | 1015.4 |
| 20260502222215 | 64 | 0 | 8.0 | 10.0 | 0.00 | 0.00 | 0.00 | 38 | 1015.4 |
| 20260502222012 | 64 | 352 | 10.0 | 10.0 | 0.00 | 0.00 | 0.00 | 38 | 1015.4 |
| 20260502221511 | 64 | 1 | 3.0 | 12.0 | 0.00 | 0.00 | 0.00 | 40 | 1015.4 |